Location: Rogalle
(42.8890°N, 1.1916°E)
Time: 02:39:06
(UTC+00:00)

Cosmos 1076 Rocket - Pass Details

Date: 13 December 2025
Orbit: 581 x 603 km, 82.5° (Epoch: 24 January)

Event Time Altitude Azimuth Distance (km) Brightness Sun altitude
Rises 17:56:41 0° 348° (NNW) 2,859 6.9 -16.8°
Reaches altitude 10° 17:58:55 10° 345° (NNW) 1,953 6.1 -17.2°
Maximum altitude 18:03:10 62° 265° (W) 679 4.0 -17.9°
Drops below altitude 10° 18:07:25 10° 185° (S) 1,943 6.3 -18.7°
Sets 18:09:38 0° 182° (S) 2,841 7.2 -19.1°
